User: anonymous   Login
Location: Campo Alegre
(10.4289°N, 66.6519°W)
Time: 16:48:16
(UTC+00:00)
Language:

ATLAS 5 CENTAUR R/B - Orbit

View from above orbital plane
View from above orbital plane
View from above satellite
View from above satellite

Ground track
Ground track

The orbit data is extracted from the following two-line orbital elements,

1 31702U 07027B   24195.78518080  .00012083  00000-0  10043-2 0  9991
2 31702  63.3266 213.7054 0523425  32.9995 330.2617 14.29915553  9332
Epoch (UTC): 13 July 2024 18:50:39
Eccentricity: 0.0523425
inclination: 63.3266°
perigee height: 417 km
apogee height: 1167 km
right ascension of ascending node: 213.7054°
argument of perigee: 32.9995°
revolutions per day: 14.29915553
mean anomaly at epoch: 330.2617°
orbit number at epoch: 933

The dashed part of the orbit path shows where the satellite is in the earth's shadow,  

DLR